﻿Дата;Google;AdRiver
2013-03-11;0;1
2012-10-16;1;0
2012-10-15;1;0
2011-08-17;1;0
2011-04-11;1;0
2010-12-02;1;0
2010-10-26;1;0
2010-10-25;1;0
2010-10-22;1;0
2010-10-19;5;0
2010-10-18;5;0
2010-10-17;2;0
2010-10-16;4;0
2010-10-15;7;0
2010-10-14;6;0
2010-10-13;11;0
2010-10-12;10;0
2010-10-11;2;0
2010-10-10;3;0
2010-10-09;1;0
2010-10-08;5;0
2010-10-07;13;0
2010-10-04;4;0
2010-10-03;12;0
2010-10-02;4;0
2010-10-01;18;0
2010-09-30;22;0
2010-09-29;22;0
2010-09-28;18;0
2010-09-27;23;0
2010-09-26;7;0
2010-09-25;9;0
2010-09-24;18;0
2010-09-23;18;0
2010-09-22;20;0
2010-09-21;23;0
2010-09-20;22;0
2010-09-19;22;0
2010-09-18;21;0
2010-09-17;26;0
2010-09-16;34;0
2010-09-15;2;0
2010-08-19;1;0
2010-08-18;1;0
2010-08-17;2;0
2010-08-16;2;0
2010-08-15;6;0
2010-08-14;5;0
2010-08-13;2;0
2010-07-29;1;0
2010-07-27;1;0
2010-07-24;4;0
2010-07-23;6;0
2010-07-22;5;0
2010-07-21;6;0
2010-07-20;4;0
2010-07-19;5;0
2010-07-18;2;0
2010-07-17;2;0
2010-07-16;2;0
2010-07-15;2;0
2010-06-23;1;0
2010-06-22;1;0
2010-06-21;4;0
2010-06-20;6;0
2010-05-05;2;0
2010-05-04;8;0
2010-05-03;5;0
2010-05-02;9;0
2010-05-01;11;0
2010-04-30;3;0
2010-04-29;5;0
2010-04-28;5;0
2010-04-27;8;0
2010-04-26;4;0
2010-04-25;9;0
2010-04-24;3;0
2010-04-23;2;0
2010-04-22;8;0
2010-04-21;4;0
2010-04-20;4;0
2010-04-19;4;0
2010-04-18;4;0
2010-04-17;8;0
2010-04-16;5;0
2010-04-15;41;0
2010-04-14;32;0
2010-04-09;9;0
2010-04-08;32;0
2010-04-07;55;0
2010-04-06;48;0
2010-04-05;54;0
2010-04-04;17;0
2010-04-03;6;0
2010-04-02;37;0
2010-04-01;43;0
2010-03-31;13;0
2010-03-30;14;0
2010-03-29;9;0
2010-03-28;6;0
2010-03-27;4;0
2010-03-26;11;0
2010-03-25;8;0
2010-03-24;11;0
2010-03-23;11;0
2010-03-22;13;0
2010-03-21;19;0
2010-03-20;18;0
2010-03-19;10;0
2010-03-18;10;0
2010-03-17;10;0
2010-03-16;10;0
2010-03-15;6;0
2010-03-14;15;0
2010-03-13;15;0
2010-03-12;18;0
2010-03-11;13;0
2010-03-09;17;0
2010-03-08;19;0
2010-03-07;17;0
2010-03-06;12;0
2010-03-05;12;0
2010-03-04;18;0
2010-03-03;17;0
2010-03-02;21;0
2010-03-01;5;0
2010-02-28;19;0
2010-02-27;14;0
2010-02-26;6;0
2010-02-25;8;0
2010-02-24;11;0
2010-02-23;9;0
2010-02-22;6;0
2010-02-21;11;0
2010-02-20;9;0
2010-02-19;6;0
2010-02-18;29;0
2010-02-17;15;0
2010-02-16;2;0
2010-02-11;1;0
